Regional Weather Roundup
Issued by NWS Cleveland, OH

Home | Current Version | Previous Version | Graphics & Text | Print | Product List | Glossary On
Versions: 1 2 3 4 5 6 7 8 9 10 11 12 13 14 15 16 17 18 19 20 21 22 23 24 25 26 27 28 29 30 31 32 33 34 35 36 37 38 39 40 41 42 43 44 45 46 47 48 49 50
000
ASUS41 KCLE 252002
RWRCLE
OHIO REGIONAL WEATHER ROUNDUP
NATIONAL WEATHER SERVICE CLEVELAND, OH
300 PM EST SUN JAN 25 2015

NOTE: "FAIR" INDICATES FEW OR NO CLOUDS BELOW 12,000 FEET WITH NO
SIGNIFICANT WEATHER AND/OR OBSTRUCTIONS TO VISIBILITY.

OHZ001>008-015>018-024>027-034-035-043-044-252100-
   NORTHWEST OHIO

CITY           SKY/WX    TMP DP  RH WIND       PRES   REMARKS
DEFIANCE       LGT SNOW  25  20  81 NE16G23   29.81S VSB 1   WCI  12
FINDLAY        LGT SNOW  25  20  81 NE28G33   29.77F WCI   9
TOLEDO EXPRESS LGT SNOW  23  17  78 E20G26    29.84S WCI   8
TOLEDO EXEC    LGT SNOW  23  15  71 NE14G29   29.86S WCI  11
LIMA           LGT SNOW  27  23  85 NE20G28   29.72F VSB 3/4 WCI  13
$$

OHZ009>014-019>023-028>033-038-089-252100-
   NORTHEAST OHIO

CITY           SKY/WX    TMP DP  RH WIND       PRES   REMARKS
CLE-HOPKINS    FLURRIES  23  18  81 NE18      29.86S WCI   9
CLE-LAKEFRONT  CLOUDY    23  16  74 NE17      29.85S WCI   9
CUY CO. ARPT   CLOUDY    25  18  74 E14       29.84S WCI  13
LORAIN-ELYRIA  LGT SNOW  22  18  85 NE17      29.83F FOG     WCI   8
ASHTABULA      CLOUDY    23  15  71 NE5       29.85S WCI  17
AKRON-CANTON   LGT SNOW  30  25  81 E10       29.78R FOG     WCI  21
WOOSTER        LGT SNOW  29  26  89 NE10      29.78S VSB 1   WCI  20
MANSFIELD      LGT SNOW  27  24  89 NE12      29.75F FOG     WCI  17
YOUNGSTOWN     FLURRIES  27  21  78 N8        29.80S WCI  19
$$

OHZ042-051>053-060>062-070>072-077>081-252100-
  SOUTHWEST OHIO

CITY           SKY/WX    TMP DP  RH WIND       PRES   REMARKS
CINC-COVINGTON LGT RAIN  40  36  86 SE10      29.65F FOG
CINC-LUNKEN    LGT RAIN  41  34  76 VRB3      29.69F
HAMILTON       LGT RAIN  40  37  89 VRB3      29.68F
DAYTON         LGT RAIN  37  35  92 SE9       29.68F FOG
WRIGHT-PAT AFB LGT RAIN  37  36  94 E5        29.68F FOG
DAYTON GENERAL LGT RAIN  38  35  89 SE9       29.67S FOG
WILMINGTON     LGT RAIN  37  33  85 SE8       29.69S FOG
$$

OHZ036-037-039>041-045>050-054>059-063>069-073>076-082>088-252100-
  CENTRAL AND SOUTHEAST OHIO

CITY           SKY/WX    TMP DP  RH WIND       PRES   REMARKS
COLUMBUS       LGT SNOW  35  33  92 E6        29.72R VSB 1
OSU AIRPORT    LGT SNOW  34  33  96 E7        29.71F FOG     WCI  28
BOLTON FIELD   NOT AVBL
RICKENBACK AFB NOT AVBL
NEWARK         LGT SNOW  35  33  92 E7        29.72S FOG     WCI  29
MARION         LGT SNOW  30  27  88 NE17      29.73F FOG     WCI  18
LANCASTER      CLOUDY    37  35  92 SE6       29.72S FOG
ZANESVILLE     MIX PCPN  35  33  92 E5        29.73F FOG
NEW PHILLY     LGT SNOW  34  31  88 NE7       29.77F FOG     WCI  28
$$


USA.gov is the U.S. government's official web portal to all federal, state and local government web resources and services.